Location: Caltech
(34.1382°N, 118.1253°W)
Time: 07:15:47
(UTC-07:00)

A-11 Canister half - All Passes

Search period start: 01 October 2014 00:00
Search period end: 11 October 2014 00:00
Orbit: 1518 x 1682 km, 47.2° (Epoch: 29 September)

Date Brightness Start Highest point End Pass type
(mag) Time Alt. Az. Time Alt. Az. Time Alt. Az.
01 Oct - 01:04:56 10° WSW 01:14:08 59° NNW 01:23:15 10° NE visible
01 Oct - 03:12:17 10° WNW 03:20:39 36° N 03:29:03 10° ENE visible
01 Oct - 05:18:31 10° NW 05:27:26 49° NNE 05:36:30 10° E visible
01 Oct - 07:23:30 10° WNW 07:32:43 69° SW 07:42:11 10° SE daylight
01 Oct - 09:31:09 10° W 09:36:29 17° SW 09:41:55 10° SSW daylight
01 Oct - 22:37:31 10° SSW 22:46:28 48° SE 22:55:13 10° ENE night (unlit)
02 Oct - 00:41:57 10° WSW 00:51:13 61° NNW 01:00:22 10° NE visible
02 Oct - 02:49:16 10° WNW 02:57:40 37° N 03:06:04 10° ENE visible
02 Oct - 04:55:38 10° NW 05:04:30 48° NNE 05:13:29 10° E visible
02 Oct - 07:00:37 10° WNW 07:09:52 73° SW 07:19:21 10° SE daylight
02 Oct - 09:07:52 10° W 09:13:41 18° SW 09:19:38 10° SSW daylight
02 Oct - 22:14:48 10° SSW 22:23:39 45° SE 22:32:17 10° ENE visible
03 Oct - 00:18:59 10° WSW 00:28:19 64° NNW 00:37:30 10° NE visible
03 Oct - 02:26:16 10° WNW 02:34:41 37° N 02:43:06 10° ENE visible
03 Oct - 04:32:44 10° NW 04:41:33 46° NNE 04:50:27 10° E visible
03 Oct - 06:37:45 10° NW 06:47:01 77° SW 06:56:31 10° SE daylight
03 Oct - 08:44:39 10° W 08:50:54 20° SW 08:57:17 10° SSW daylight
03 Oct - 21:52:06 10° SSW 22:00:50 42° SE 22:09:21 10° ENE visible
03 Oct - 23:56:02 10° WSW 00:05:25 67° NNW 00:14:39 10° NE visible
04 Oct - 02:03:15 10° WNW 02:11:42 37° N 02:20:09 10° ENE visible
04 Oct - 04:09:50 10° NW 04:18:36 45° NNE 04:27:26 10° E visible
04 Oct - 06:14:52 10° NW 06:24:10 81° SW 06:33:39 10° SE visible
04 Oct - 08:21:30 10° W 08:28:06 22° SW 08:34:52 10° S daylight
04 Oct - 21:29:25 10° SSW 21:38:01 39° SE 21:46:23 10° ENE visible
04 Oct - 23:33:05 10° WSW 23:42:31 71° NNW 23:51:47 10° NE night (unlit)
05 Oct - 01:40:14 10° WNW 01:48:44 38° N 01:57:11 10° ENE visible
05 Oct - 03:46:56 10° NW 03:55:39 43° NNE 04:04:25 10° E visible
05 Oct - 05:52:00 10° NW 06:01:18 86° SW 06:10:47 10° SE visible
05 Oct - 07:58:22 10° WNW 08:05:19 24° SW 08:12:24 10° S daylight
05 Oct - 21:06:45 10° SSW 21:15:12 36° SE 21:23:25 10° ENE visible
05 Oct - 23:10:08 10° WSW 23:19:38 74° NNW 23:28:55 10° NE visible
06 Oct - 01:17:12 10° WNW 01:25:45 38° N 01:34:15 10° ENE visible
06 Oct - 03:24:01 10° NW 03:32:42 42° NNE 03:41:24 10° E visible
06 Oct - 05:29:08 10° NW 05:38:26 90° SW 05:47:54 10° SE visible
06 Oct - 07:35:18 10° WNW 07:42:31 26° SW 07:49:54 10° S daylight
06 Oct - 20:44:07 10° S 20:52:23 34° SE 21:00:27 10° ENE visible
06 Oct - 22:47:12 10° WSW 22:56:44 78° NW 23:06:04 10° NE visible
07 Oct - 00:54:10 10° WNW 01:02:47 39° NNW 01:11:19 10° NE visible
07 Oct - 03:01:06 10° NW 03:09:44 41° NNE 03:18:22 10° E visible
07 Oct - 05:06:16 10° NW 05:15:34 86° NE 05:25:01 10° SE visible
07 Oct - 07:12:14 10° WNW 07:19:43 28° SW 07:27:21 10° S daylight
07 Oct - 20:21:30 10° S 20:29:35 31° SE 20:37:27 10° ENE visible
07 Oct - 22:24:17 10° WSW 22:33:51 82° NW 22:43:12 10° NE visible
08 Oct - 00:31:08 10° W 00:39:49 40° NNW 00:48:23 10° NE visible
08 Oct - 02:38:11 10° NW 02:46:46 40° NNE 02:55:21 10° E visible
08 Oct - 04:43:24 10° NW 04:52:42 82° NE 05:02:07 10° ESE visible
08 Oct - 06:49:13 10° WNW 06:56:55 31° SW 07:04:47 10° S daylight
08 Oct - 19:58:55 10° S 20:06:46 29° SE 20:14:25 10° ENE visible
08 Oct - 22:01:22 10° SW 22:10:59 86° NW 22:20:20 10° NE visible
09 Oct - 00:08:06 10° W 00:16:51 41° NNW 00:25:28 10° NE night (unlit)
09 Oct - 02:15:14 10° NW 02:23:48 39° NNE 02:32:20 10° ENE visible
09 Oct - 04:20:32 10° NW 04:29:50 78° NE 04:39:12 10° ESE visible
09 Oct - 06:26:12 10° WNW 06:34:07 33° SW 06:42:12 10° S visible
09 Oct - 19:36:22 10° S 19:43:58 27° SE 19:51:22 10° ENE visible
09 Oct - 21:38:27 10° SW 21:48:06 90° NW 21:57:29 10° NE visible
09 Oct - 23:45:04 10° W 23:53:53 42° NNW 00:02:34 10° NE visible
10 Oct - 01:52:18 10° WNW 02:00:50 39° N 02:09:19 10° ENE visible
10 Oct - 03:57:40 10° NW 04:06:57 74° NNE 04:16:17 10° ESE visible
10 Oct - 06:03:13 10° WNW 06:11:19 36° SW 06:19:34 10° SSE visible
10 Oct - 19:13:50 10° S 19:21:10 25° SE 19:28:18 10° ENE visible
10 Oct - 21:15:34 10° SW 21:25:14 86° SE 21:34:37 10° NE visible
10 Oct - 23:22:02 10° W 23:30:55 43° NNW 23:39:40 10° NE visible
